Regional Weather Roundup
Issued by NWS

Home | Current Version | Previous Version | Graphics & Text | Print | Product List | Glossary On
Versions: 1 2 3 4 5 6 7 8 9 10 11 12 13 14 15 16 17 18 19 20 21 22 23 24 25 26 27 28 29 30 31 32 33 34 35 36 37 38 39 40 41 42 43 44 45 46 47 48 49 50
313
ASUS44 KJAN 171010
RWRMS

MISSISSIPPI HOURLY WEATHER ROUNDUP
NATIONAL WEATHER SERVICE JACKSON MS
500 AM CDT THU APR 17 2014

NOTE: "FAIR: INDICATES FEW OR NO CLOUDS BELOW 12,000 FEET WITH NO
SIGNIFICANT WEATHER AND/OR OBSTRUCTIONS TO VISIBILITY.

MSZ001>002-007>008-010>013-018>021-025>028-034>036-171100-
NORTHWEST MISSISSIPPI

CITY           SKY/WX    TMP DP  RH WIND       PRES   REMARKS
CLARKSDALE       N/A     45  39  81 CALM      30.21S
CLEVELAND      FAIR      45  41  85 E3        30.19S
GREENWOOD      CLEAR     42  38  85 VRB5      30.20R
GREENVILLE     CLEAR     42  39  89 CALM      30.19R
GRENADA        FAIR      37  36  93 CALM      30.22R
OLIVE BRANCH   CLEAR     43  34  70 CALM      30.22S
OXFORD         FAIR      43  36  75 SE3       30.24R
TUNICA         SUNNY     39  37  93 CALM      30.22S
$$

MSZ003>006-009-014>017-022>024-029>033-037>039-171100-
NORTHEAST MISSISSIPPI

CITY           SKY/WX    TMP DP  RH WIND       PRES   REMARKS
BELMONT        FAIR      44  36  73 E3        30.25R
COLUMBUS AFB   CLEAR     42  37  82 SE7       30.25R
CORINTH        FAIR      39  36  87 CALM      30.25R
GOLDN TRIANGLE CLEAR     48  36  61 SE14      30.26S
STARKVILLE     FAIR      45  37  76 SE3       30.23R
TUPELO         CLEAR     45  37  73 S5        30.24R
$$

MSZ040-058-171100-
CENTRAL MISSISSIPPI

CITY           SKY/WX    TMP DP  RH WIND       PRES   REMARKS
JACKSON INTL   CLEAR     42  39  89 CALM      30.19R
JACKSON HAWKNS CLEAR     44  40  85 CALM      30.20R
MERIDIAN KEY   CLEAR     41  39  93 N3        30.22R
MERIDIAN NAS   CLEAR     42  38  85 E3        30.23S
RAYMOND        FAIR      39  36  87 MISG      30.20R FOG
VICKSBURG      PTCLDY    48  44  86 E6        30.19R
$$

MSZ059>079-171100-
SOUTH MISSISSIPPI

CITY           SKY/WX    TMP DP  RH WIND       PRES   REMARKS
BROOKHAVEN     FAIR      39  39 100 CALM      30.19R FOG
COLUMBIA       PTSUNNY   43  43 100 MISG      30.17R
HATTIESBURG    CLOUDY    43  42  97 CALM      30.19S
MCCOMB         CLOUDY    47  43  86 N5        30.16S
NATCHEZ        PTCLDY    43  39  87 CALM      30.17R
PINE BELT      PTCLDY    43  39  87 NE6       30.18S
$$

MSZ080>082-171100-
COASTAL MISSISSIPPI

CITY           SKY/WX    TMP DP  RH WIND       PRES   REMARKS
BILOXI         CLOUDY    53  49  87 E6        30.14S
PASCAGOULA     PTCLDY    50  48  93 NE5       30.15S
GULFPORT       MOCLDY    55  48  77 NE7       30.13F
$$



USA.gov is the U.S. government's official web portal to all federal, state and local government web resources and services.